Location: Chippewa Lake
(41.0698°N, 81.9010°W)
Time: 01:43:28
(UTC+00:00)

ATLAS 5 CENTAUR R/B - Pass Details

Date: 09 May 2021
Orbit: 512 x 1146 km, 63.3° (Epoch: 24 June)

Event Time Altitude Azimuth Distance (km) Brightness Sun altitude
Rises 02:41:36 0° 324° (NW) 3,291 6.9 -20.5°
Reaches altitude 10° 02:43:51 10° 324° (NW) 2,450 5.8 -20.7°
Maximum altitude 02:49:38 87° 236° (SW) 950 2.4 -21.5°
Enters shadow 02:52:06 41° 150° (SSE) 1,392 2.8 -21.7°
